Regional Weather Roundup
Issued by NWS

Home | Current Version | Previous Version | Text Only | Print | Product List | Glossary On
Versions: 1 2 3 4 5 6 7 8 9 10 11 12 13 14 15 16 17 18 19 20 21 22 23 24 25 26 27 28 29 30 31 32 33 34 35 36 37 38 39 40 41 42 43 44 45 46 47 48 49 50
000
ASUS45 KABQ 260810
RWRNM
NEW MEXICO REGIONAL WEATHER ROUNDUP
NATIONAL WEATHER SERVICE ALBUQUERQUE NM
100 AM MST SUN FEB 26 2017

NOTE: "FAIR" MEANS FEW OR NO CLOUDS BELOW 12,000 FEET AGL WITH NO
       SIGNIFICANT WEATHER OR OBSTRUCTIONS TO VISION.

      THIS PRODUCT IS RELEASED AS TWO VERSIONS.  ONE VERSION NEAR
      THE TOP OF THE HOUR CONTAINING PRELIMINARY DATA FROM ALBUQUERQUE
      AND OTHER STATIONS.  A FINAL VERSION WITH ADDITIONAL DATA IS
      ISSUED ABOUT 10 MINUTES AFTER THE HOUR.

NMZ501-503-504-510>518-260900-
NORTHWEST PLATEAU/NORTHCENTRAL MOUNTAINS

CITY           SKY/WX    TMP DP  RH WIND       PRES   REMARKS
FARMINGTON     CLOUDY    28  11  48 S5        29.87S WCI  23
LOS ALAMOS     FAIR      30   4  33 S5        29.86S WCI  25
SANTA FE       FAIR      23   5  46 W3        29.86R
TAOS           FAIR      19   0  42 CALM      29.85S
ANGEL FIRE     CLOUDY    23   5  46 S5        29.82F WCI  16

$$
NMZ402-403-502-505>509-260900-
WESTCENTRAL MOUNTAINS/SOUTHWEST MOUNTAINS

CITY           SKY/WX    TMP DP  RH WIND       PRES   REMARKS
GALLUP         CLOUDY    32  21  64 W13       29.92F WCI  22
GRANTS         FAIR      35  10  36 W10G18    29.91S WCI  27
SILVER CITY    FAIR      37   9  30 NW10      29.95F WCI  30

$$
NMZ407-409-411-412-260900-
SOUTHERN DESERTS

CITY           SKY/WX    TMP DP  RH WIND       PRES   REMARKS
DEMING         FAIR      37  14  38 SW8       29.94F WCI  31
LAS CRUCES     FAIR      40   8  27 CALM      29.95F
HOLLOMAN AFB   CLOUDY    51   5  15 S7        29.95F
ALAMOGORDO     FAIR      48   9  20 S6        29.93F
T OR C         FAIR      41   3  20 W6        29.90F

$$
NMZ519>523-260900-
CENTRAL VALLEYS/CENTRAL HIGHLANDS

CITY           SKY/WX    TMP DP  RH WIND       PRES   REMARKS
ALBUQUERQUE    MOCLDY    40   6  24 W5        29.88F
DOUBLE EAGLE   FAIR      29   8  39 W6        29.88S WCI  23
MORIARTY ARPT  FAIR      34   5  29 SW10      29.88S WCI  26
CLINES CORNERS CLOUDY    33   2  26 W18       29.87S WCI  22
BELEN          FAIR      35   3  25 S3        29.89F
SOCORRO        FAIR      40   3  21 SE5       29.89R

$$
NMZ524>526-539-540-260900-
SOUTHCENTRAL MOUNTAINS

CITY           SKY/WX    TMP DP  RH WIND       PRES   REMARKS
RUIDOSO        CLOUDY    41  -2  16 W17G26    29.92S

$$
NMZ527>531-260900-
NORTHEAST HIGHLANDS/NORTHEAST PLAINS

CITY           SKY/WX    TMP DP  RH WIND       PRES   REMARKS
LAS VEGAS      FAIR      27   4  37 SW12      29.82S WCI  17
RATON          FAIR      26   1  34 SW6       29.79S WCI  19
CLAYTON        FAIR      34  14  43 VRB6G17   29.82R WCI  29

$$
NMZ532>537-260900-
EASTCENTRAL PLAINS

CITY           SKY/WX    TMP DP  RH WIND       PRES   REMARKS
TUCUMCARI      FAIR      33  17  51 SW8       29.80F WCI  26
CANNON AFB     MOCLDY    30  24  77 N6        29.84R WCI  24
CLOVIS AIRPORT FAIR      28  19  69 S3        29.83S

$$
NMZ028-029-538-260900-
SOUTHEAST PLAINS

CITY           SKY/WX    TMP DP  RH WIND       PRES   REMARKS
ROSWELL        FAIR      42  17  36 S10         N/A
ARTESIA        FAIR      39  19  45 S10       29.86S WCI  32
CARLSBAD       FAIR      36  19  50 CALM      29.85S
HOBBS          FAIR      37  25  60 S6        29.87S WCI  33


$$




USA.gov is the U.S. government's official web portal to all federal, state and local government web resources and services.